Location: Klickitat County Star Party
(45.8642°N, 120.6771°W)
Time: 20:15:33
(UTC-07:00)

SO-50 - Pass Details

Date: 29 May 2019
Orbit: 586 x 700 km, 64.6° (Epoch: 17 June)

Event Time Altitude Azimuth Distance (km) Brightness Sun altitude
Rises 00:10:37 0° 328° (NNW) 3,092 ? -21.6°
Reaches altitude 10° 00:13:39 10° 347° (NNW) 2,166 ? -21.7°
Maximum altitude 00:17:07 19° 31° (NNE) 1,641 ? -21.8°
Drops below altitude 10° 00:20:33 10° 76° (ENE) 2,131 ? -22.0°
Enters shadow 00:23:07 - 93° (E) 2,896 ? -22.0°
